Погода в Среднехорском

Россия / Хабаровский край     47°40′41″N   136°13′44″E
темп.,
°C
ветер,
м/с
пор.,
м/с
влажн.,
%
обл.,
%
осадки,
мм/ч
давл.,
гПа
погр.,
м
15 апреля, чт
чт1501:00−6зюз297396 0.1 1009393
04:00−8зюз26855 0.1 1010133
07:00−7зюз39713 0.0 1012753
10:00−2з59427 0.0 10131611
13:00+3з593434 0.0 10122120
16:00+5з51134100 0.0 10122653
19:00+1сз115754 0.0 101410
22:00−5в11844 0.0 101711
16 апреля, пт
пт1601:00−5в21845 0.0 101819
04:00−5в2180100 0.0 101825
07:00−1вюв2265100 0.0 101761
10:00+7вюв2343100 0.0 1015251
13:00+13ююв2435100 0.0 1013944
16:00+14ю4734100 0.0 10112506
19:00+7ю3658100 0.0 1011190
22:00+4юв2270100 0.0 101225
17 апреля, сб
сб1701:00+1в227898 0.0 101222
04:00+1в1284100 1.4 101152
07:00+1юв2383100 0.3 1012101
10:00+7ююв266636 0.5 10121061
13:00+11юз5840100 0.5 10112857
16:00+12зюз463291 0.6 10112579
19:00+10ююв114199 0.0 101110
22:00+4с2272100 0.0 101330
18 апреля, вс
вс1801:00+4всв2170100 0.0 101213
04:00+3св2271100 0.0 101024
07:00+3св2375100 0.0 101070
10:00+10ссв2548100 0.0 1007863
13:00+14св573446 0.0 10041861
16:00+15св473095 0.0 10012636
19:00+11св365673 0.0 1002450
22:00+7св237354 0.0 100376
19 апреля, пн
пн1901:00+4ссв228482 0.0 100343
04:00+2ссз2288100 0.0 100361
07:00+2ссз2691100 0.0 1003408
10:00+3ссз4882100 0.0 1003770
13:00+9с5852100 0.0 10021466
16:00+9с6115015 0.0 10021495
19:00+6с5146299 0.0 10031205
22:00+3с3107688 0.0 1005887